STARLINK-34223

Last updated on Thu Jul 03 2025 00:02:06 GMT+0000 (Coordinated Universal Time)

1 64336U 25124V 25183.58335648 .00047375 00000+0 80955-3 0 9992 2 64336 43.0003 98.8357 0001618 260.6774 188.9833 15.50541153 4635
UTC large
Height (km)
Speed (km/s)
/
Latitude / Longitude
Inclination (degrees)
Orbital Period (minutes)
Azimuth
Elevation
Range (km)
Doppler Factor

Next 0 passes for location: London (51.5072 / 0.1276)

Sorry there are no passes over London.